Location: Nied?wied?
(53.3665°N, 14.8184°E)
Time: 23:36:30
(UTC+00:00)

USA 281 - Pass Details

Date: 03 March 2021
Orbit: 1076 x 1083 km, 106.0° (Epoch: 03 April)

Event Time Altitude Azimuth Distance (km) Brightness Sun altitude
Exits shadow 19:47:37 37° 52° (NE) 1,621 3.9 -27.5°
Maximum altitude 19:48:03 37° 44° (NE) 1,611 4.0 -27.6°
Drops below altitude 10° 19:53:57 10° 340° (NNW) 2,929 6.1 -28.3°
Sets 19:56:39 0° 332° (NNW) 3,889 7.0 -28.7°
